Location: Herm
(49.4830°N, 2.4500°W)
Time: 20:41:30
(UTC+00:00)

VELOX 1 - Pass Details

Date: 29 October 2021
Orbit: 627 x 641 km, 98.3° (Epoch: 03 December)

Event Time Altitude Azimuth Distance (km) Brightness Sun altitude
Rises 19:41:51 0° 358° (N) 2,955 ? -18.2°
Reaches altitude 10° 19:45:29 10° 326° (NNW) 2,042 ? -18.8°
Maximum altitude 19:47:02 12° 306° (NW) 1,929 ? -19.0°
Drops below altitude 10° 19:48:34 10° 286° (WNW) 2,040 ? -19.3°
Sets 19:52:12 0° 254° (WSW) 2,945 ? -19.9°
